Weather History for Madrid, Spain

Change the Weather History Date:

Wednesday, October 26, 2011

  Actual Average Record
Temperature  
Mean Temperature 51 °F -  
Max Temperature 60 °F 57 °F 81 °F (2014)
Min Temperature 42 °F 39 °F 32 °F (2010)
Degree Days  
Heating Degree Days 14    
Growing Degree Days 1 (Base 50)    
Moisture  
Dew Point 44 °F    
Average Humidity 72    
Maximum Humidity 93    
Minimum Humidity 46    
Precipitation  
Precipitation 0.00 in 0.07 in - ()
Sea Level Pressure  
Sea Level Pressure 29.89 in    
Wind  
Wind Speed 6 mph ()    
Max Wind Speed 16 mph    
Max Gust Speed 39 mph    
Visibility 7.1 miles    
Events      
Averages and records for this station are not official NWS values.
T = Trace of Precipitation, MM = Missing Value Source: Averaged Metar Reports

Daily Weather History Graph

Daily Weather History Graph

Search for Another Location

Airport:

Trip Planner

Search our weather history database for the weather conditions in past years. The results will help you decide how hot, cold, wet, or windy it might be!

Date:

Astronomy

Oct. 26, 2011 Rise Set
Actual Time 8:36 AM CEST 7:19 PM CEST
Civil Twilight 8:08 AM CEST 7:47 PM CEST
Nautical Twilight 7:36 AM CEST 8:18 PM CEST
Astronomical Twilight 7:05 AM CEST 8:50 PM CEST
Moon 8:06 AM CEST (10/26) 6:51 PM CEST (10/26)
Length of Visible Light 11h 38m
Length of Day
10h 42m
Waning Crescent, 0% of the Moon is Illuminated
Oct 26
Waning Crescent
Oct 26
New
Nov 2
First Quarter
Nov 10
Full
Nov 18
Last Quarter

Hourly Weather History & Observations

Time (CEST) Temp. Windchill Dew Point Humidity Pressure Visibility Wind Dir Wind Speed Gust Speed Precip Events Conditions
12:00 AM 53.6 °F - 41.0 °F 62% 29.92 in - SW 9.2 mph - N/A   Clear
12:30 AM 53.6 °F - 41.0 °F 62% 29.95 in - SW 11.5 mph - N/A   Clear
1:00 AM 51.8 °F - 42.8 °F 71% 29.92 in - SW 8.1 mph - N/A   Clear
1:30 AM 50.0 °F - 42.8 °F 76% 29.95 in - SSW 8.1 mph - N/A   Clear
2:00 AM 49 °F - 42 °F 68% 29.96 in 19 mi SSW 6.9 mph - -   Scattered Clouds
2:00 AM 50.0 °F - 42.8 °F 76% 29.95 in 6.2 mi SW 6.9 mph - N/A   Partly Cloudy
2:30 AM 50.0 °F - 44.6 °F 82% 29.95 in 6.2 mi SSW 4.6 mph - N/A   Mostly Cloudy
3:00 AM 50.0 °F - 42.8 °F 76% 29.95 in 6.2 mi SSE 3.5 mph - N/A   Mostly Cloudy
3:30 AM 48.2 °F - 42.8 °F 82% 29.95 in 6.2 mi SSE 4.6 mph - N/A   Scattered Clouds
4:00 AM 46.4 °F 45.2 °F 42.8 °F 87% 29.95 in 6.2 mi SE 3.5 mph - N/A   Mostly Cloudy
4:30 AM 48.2 °F - 44.6 °F 87% 29.95 in 6.2 mi Variable 1.2 mph - N/A   Mostly Cloudy
5:00 AM 48.2 °F - 42.8 °F 82% 29.95 in 6.2 mi South 3.5 mph - N/A   Mostly Cloudy
5:30 AM 48.2 °F - 42.8 °F 82% 29.92 in 6.2 mi Calm Calm - N/A   Mostly Cloudy
6:00 AM 48.2 °F - 44.6 °F 87% 29.92 in 6.2 mi Calm Calm - N/A   Mostly Cloudy
6:30 AM 46.4 °F 45.2 °F 42.8 °F 87% 29.92 in 6.2 mi NNW 3.5 mph - N/A   Mostly Cloudy
7:00 AM 44.6 °F - 42.8 °F 93% 29.92 in 6.2 mi Calm Calm - N/A   Mostly Cloudy
7:30 AM 44.6 °F - 41.0 °F 87% 29.95 in 6.2 mi Calm Calm - N/A   Scattered Clouds
8:00 AM 43 °F - 39 °F 80% 29.99 in 19 mi Calm Calm - -   Scattered Clouds
8:00 AM 42.8 °F - 41.0 °F 93% 29.95 in 6.2 mi Calm Calm - N/A   Partly Cloudy
8:30 AM 42.8 °F 41.1 °F 41.0 °F 93% 29.95 in 6.2 mi North 3.5 mph - N/A   Partly Cloudy
9:00 AM 42.8 °F 41.1 °F 41.0 °F 93% 29.95 in 6.2 mi North 3.5 mph - N/A   Partly Cloudy
9:30 AM 44.6 °F - 42.8 °F 93% 29.95 in 6.2 mi Calm Calm - N/A   Partly Cloudy
10:00 AM 46.4 °F - 42.8 °F 87% 29.95 in 6.2 mi Calm Calm - N/A   Partly Cloudy
10:30 AM 48.2 °F - 42.8 °F 82% 29.98 in 6.2 mi Calm Calm - N/A   Scattered Clouds
11:00 AM 50.0 °F - 44.6 °F 82% 29.98 in 6.2 mi Calm Calm - N/A   Scattered Clouds
11:30 AM 51.8 °F - 44.6 °F 76% 29.98 in 6.2 mi Calm Calm - N/A   Scattered Clouds
12:00 PM 51.8 °F - 46.4 °F 82% 29.98 in 6.2 mi SSW 2.3 mph - N/A   Scattered Clouds
12:30 PM 55.4 °F - 48.2 °F 77% 29.95 in 6.2 mi SSE 10.4 mph - N/A   Scattered Clouds
1:00 PM 57.2 °F - 46.4 °F 67% 29.95 in 6.2 mi South 9.2 mph 23.0 mph N/A   Scattered Clouds
1:30 PM 59.0 °F - 46.4 °F 63% 29.92 in 6.2 mi South 11.5 mph 25.3 mph N/A   Scattered Clouds
2:00 PM 60 °F - 45 °F 46% 29.87 in 12 mi South 15.0 mph - -   Partly Cloudy
2:00 PM 59.0 °F - 46.4 °F 63% 29.92 in 6.2 mi South 15.0 mph 26.5 mph N/A   Scattered Clouds
2:30 PM 59.0 °F - 46.4 °F 63% 29.89 in 6.2 mi South 13.8 mph - N/A   Mostly Cloudy
3:00 PM 59.0 °F - 46.4 °F 63% 29.89 in 6.2 mi South 12.7 mph - N/A   Mostly Cloudy
3:30 PM 59.0 °F - 44.6 °F 59% 29.86 in 6.2 mi South 13.8 mph 29.9 mph N/A   Mostly Cloudy
4:00 PM 59.0 °F - 44.6 °F 59% 29.86 in 6.2 mi South 13.8 mph 25.3 mph N/A   Mostly Cloudy
4:30 PM 59.0 °F - 46.4 °F 63% 29.83 in 6.2 mi South 12.7 mph - N/A   Mostly Cloudy
5:00 PM 60.8 °F - 44.6 °F 55% 29.83 in 6.2 mi South 16.1 mph - N/A   Scattered Clouds
5:30 PM 59.0 °F - 44.6 °F 59% 29.83 in 6.2 mi South 16.1 mph 39.1 mph N/A   Scattered Clouds
6:00 PM 59.0 °F - 44.6 °F 59% 29.83 in 6.2 mi South 11.5 mph - N/A   Partly Cloudy
6:30 PM 59.0 °F - 44.6 °F 59% 29.83 in 6.2 mi South 9.2 mph - N/A   Partly Cloudy
7:00 PM 59.0 °F - 46.4 °F 63% 29.80 in 6.2 mi SE 8.1 mph - N/A   Scattered Clouds
7:30 PM 59.0 °F - 46.4 °F 63% 29.80 in 6.2 mi SSE 9.2 mph - N/A   Scattered Clouds
8:00 PM 58 °F - 44 °F 49% 29.77 in 19 mi SSE 10.4 mph - -   Mostly Cloudy
8:00 PM 59.0 °F - 44.6 °F 59% 29.80 in 6.2 mi SSE 10.4 mph - N/A   Scattered Clouds
8:30 PM 59.0 °F - 42.8 °F 55% 29.80 in 6.2 mi SSE 11.5 mph - N/A   Scattered Clouds
9:00 PM 59.0 °F - 44.6 °F 59% 29.77 in 6.2 mi SSE 11.5 mph - N/A   Scattered Clouds
9:30 PM 59.0 °F - 44.6 °F 59% 29.80 in 6.2 mi South 11.5 mph - N/A   Scattered Clouds
10:00 PM 59.0 °F - 44.6 °F 59% 29.77 in 6.2 mi SSE 10.4 mph 28.8 mph N/A   Scattered Clouds
10:30 PM 59.0 °F - 42.8 °F 55% 29.77 in 6.2 mi South 11.5 mph - N/A   Scattered Clouds
11:00 PM 57.2 °F - 46.4 °F 67% 29.77 in 6.2 mi South 13.8 mph - N/A   Scattered Clouds
11:30 PM 55.4 °F - 46.4 °F 72% 29.77 in 6.2 mi SSE 15.0 mph - N/A   Scattered Clouds